GFSGL_con_sbcape_222.txt.gz
CAPE
2722 2933 3024 2994 2735 2849 3399 4298 2917 3906 4295 4484 4069 4309 4373 4381 4514 4714 4468 4227 3943 3863 3623 3258 2694 2546 2003 1481 1310 471 149 61 0 0 2 0 0 0 0 0 0 0 0
2532 2753 2874 3066 2776 2418 2885 3697 4010 3571 4646 4053 4453 4259 4456 4347 4464 4532 4202 3202 3537 3821 3578 3624 3157 2506 2630 2078 1497 1312 1015 582 162 2 0 0 0 0 0 0 0 0 0
2487 2579 2815 2818 2538 2452 2460 3144 3597 3430 3556 3761 3871 4193 4132 4175 4364 4464 4447 4058 3822 3495 3707 3593 3497 3381 2952 2509 2168 1627 1288 441 213 1 0 0 0 0 0 0 0 0 0
2355 2554 2917 2641 2396 2268 2682 2729 3236 3397 3303 3450 3522 3696 3898 4061 3965 4112 4146 4085 3860 3621 3592 3521 3520 3398 3418 3207 2689 1975 1710 1358 864 28 0 0 0 0 0 0 0 0 0
2444 2622 2743 3057 2538 2364 2472 2864 2696 3051 3080 3266 3314 3504 3678 3399 3162 3609 3720 3690 3890 3826 3606 3539 3217 3239 3107 3097 2900 2504 2037 1759 837 401 4 0 0 0 0 0 0 0 0
2513 2604 2941 2887 2879 2497 2559 2518 3073 2812 2842 3213 3142 3162 3259 3089 2214 1810 2585 3083 3128 3191 3317 3431 3367 2966 2756 2153 1847 1836 1992 2110 1314 718 206 0 0 0 0 0 0 0 0
2565 2964 2990 3074 3000 2853 2734 2996 2664 3321 3066 3014 3154 3073 3212 3252 2571 1120 713 2075 2493 2571 3002 3143 2729 2230 1955 2587 2123 702 640 506 692 825 612 79 0 0 0 0 0 0 0
2604 2538 3106 3213 3134 2888 3143 3089 3300 2941 3262 3466 3261 3432 3303 3168 2810 2311 1289 1017 2102 2415 2442 2340 2271 2170 2121 2442 2866 2768 1163 772 1 0 3 15 0 0 0 0 0 0 0
2455 2634 2929 3170 3266 3431 3176 3249 3334 3308 3600 3393 3606 3665 3612 3486 2942 2336 931 1528 1781 1924 1956 2100 2200 2260 2295 2502 2401 2783 2935 2093 227 18 0 0 0 0 0 0 0 0 0
3550 2942 2962 3354 3249 3351 3565 3501 3461 3610 3425 3807 3782 3780 3724 3801 3377 2342 149 2166 2208 1950 1923 1989 1977 1820 2037 1889 1784 2732 2950 2954 613 3 0 0 0 0 0 0 0 0 0
3331 3822 3420 3383 3393 3563 3599 3846 3797 3789 3681 3598 3693 3797 3877 3584 3653 2337 885 2207 2318 2211 2169 2148 2154 567 36 0 0 2093 2754 2930 1730 363 0 0 0 0 0 0 0 0 0
3823 3612 3966 3602 3611 3323 3768 3709 3916 3871 3859 3819 3757 3544 3469 3673 3096 2758 567 197 2548 2594 2423 2203 1934 432 395 674 0 14 951 1354 310 0 0 0 0 0 0 0 0 0 0
4853 4118 3633 4139 3815 3691 3774 3705 3822 3912 3815 3764 3702 3339 3549 3115 3728 2186 583 0 49 1688 2563 2348 1756 0 0 0 0 0 0 398 30 0 0 0 0 0 0 0 0 0 0
3860 4438 4309 4035 3876 3844 3545 3491 3708 3749 3801 3767 3602 3505 3245 3043 3275 2965 1216 53 0 17 684 1407 694 489 5 15 4 0 0 95 7 0 0 0 0 0 0 0 0 0 0
1472 3738 3722 3652 3489 3629 3672 3326 3155 3656 3484 3621 3567 3251 3236 3068 2864 2477 2497 2562 1639 895 1331 1784 2172 1271 1302 615 168 334 6 0 0 0 0 0 0 0 0 0 0 0 0
846 1917 2570 2619 2700 2855 3147 3430 2771 2134 2139 2481 1420 1202 3064 771 220 47 51 0 1649 1671 934 2269 2489 2213 1581 920 850 699 0 0 0 0 0 0 0 0 0 0 0 0 0
84 1088 1112 1375 2273 2600 2538 3025 3222 2739 1777 1099 1474 1 1 1086 27 0 0 0 8 258 2465 2500 2598 2758 2743 1061 1059 1704 562 0 0 0 0 0 0 0 0 0 0 0 0
2 0 415 639 798 596 2447 2911 2898 3344 3335 2808 278 233 19 0 0 48 44 33 386 446 2235 2473 2678 2693 2406 2196 1413 1510 194 0 0 0 0 0 0 0 0 0 0 0 0
9 7 8 20 86 10 596 178 1065 2121 2480 2477 2288 378 0 1 2 2 2 1240 1790 1924 2047 2028 2052 1925 1975 2077 1526 747 156 0 0 0 0 0 0 0 0 0 0 0 0
17 3 6 16 18 6 9 5 8 7 77 77 33 4 19 1 244 394 0 212 1370 1691 1699 1844 2217 2630 2072 1515 498 58 0 0 0 0 0 0 0 0 0 0 0 0 0
3 8 8 7 31 20 8 11 10 10 6 8 8 5 1 405 12 29 289 827 822 1163 2012 2056 2611 1851 1465 710 127 0 0 0 0 0 0 0 0 0 0 0 0 0 0
1 2 1 1 35 15 32 13 9 8 9 9 9 7 0 6 7 2 0 5 10 45 58 628 1155 1172 1268 952 0 0 0 0 0 0 0 0 0 0 0 0 0 0 0
0 0 0 0 8 1 11 2 5 6 8 9 8 12 5 11 13 12 12 0 1 1 2 0 0 0 0 0 0 0 0 0 0 0 0 0 0 0 0 0 0 0 0
0 0 0 0 0 0 0 0 0 0 0 3 7 7 10 4 8 7 2 2 0 5 0 0 0 0 0 0 0 0 1 3 0 0 0 0 0 0 0 0 0 0 0
0 0 0 0 0 0 0 0 0 0 0 0 0 0 0 0 2 0 5 6 5 4 0 1 0 0 0 0 0 0 0 0 0 0 0 0 0 0 0 0 0 0 0
0 0 0 0 0 0 0 0 0 0 0 0 1 0 0 0 0 0 0 0 0 0 0 3 0 0 0 0 0 0 0 0 0 0 0 0 0 0 0 0 0 0 0

GFSGL_con_sbcape_228.txt.gz
CAPE
828 1012 995 1113 1619 1521 1787 2200 1133 1169 1972 1836 2161 2235 2183 2434 2240 2066 2059 2168 1638 1159 1303 1009 805 516 507 599 252 29 0 0 0 0 0 0 0 0 0 0 0 0 0
941 1157 1065 1051 1069 1571 1355 1474 2017 1187 2023 2124 1889 2182 2182 2071 2367 2344 2298 2369 2404 1959 1722 1727 1604 1097 830 822 730 606 282 42 0 0 0 0 0 0 0 0 0 0 0
1028 1243 1214 1229 944 1024 1205 1205 1402 2048 1405 2048 1922 1776 1933 2239 2181 2340 2362 2236 2197 2178 2099 2136 2047 1790 1643 1251 1099 970 673 404 81 1 72 0 0 0 0 0 0 0 0
1278 1120 1421 1340 1339 966 860 828 1091 1419 1820 1916 2088 1877 1579 1943 2370 2196 2344 2381 2340 2166 2039 1988 1942 1875 1817 1717 1409 1257 1168 680 372 161 42 58 0 0 0 0 0 0 0
1555 1315 1366 1487 1484 1383 1179 939 691 908 1591 1628 1935 2049 2069 2030 1964 2156 2380 2466 2448 2402 2319 2280 2179 2034 2071 1980 1935 1716 1611 1418 1190 827 866 30 0 0 0 0 0 0 0
1473 1657 1588 1696 1719 1709 1636 1427 1056 823 986 1740 1495 1802 2018 2125 2220 2407 2314 2245 2233 2275 2367 2237 2178 2321 1988 1778 1423 1493 2048 1865 1682 1511 1484 1055 792 4 0 0 0 0 0
1642 1673 1651 1740 1871 1862 1797 1554 1413 1274 989 1076 1736 1632 1551 1867 2268 2057 1392 1841 2131 1986 1861 1893 1785 1893 1883 1837 1872 1434 487 274 781 1622 1518 1079 962 25 0 0 0 0 0
1544 1637 1676 1517 1713 1753 1725 1557 1451 1490 1379 1174 1199 1718 1723 1681 1653 1574 1118 769 1534 1442 1507 1535 1487 1606 1507 1496 1031 914 961 892 557 64 296 1063 818 146 0 0 0 0 0
1179 1424 1455 1550 1495 1834 1684 1574 1468 1379 1395 1544 1398 1206 1470 1733 1633 1157 441 712 700 615 502 507 955 1095 1112 787 495 892 1015 985 989 694 404 475 679 0 0 0 0 0 0
0 11 556 1475 1752 1632 1879 1710 1555 1470 1408 1309 1579 1584 1373 1404 1353 939 14 1159 1408 1311 1358 1237 771 592 1009 154 151 679 717 926 739 379 3 0 0 0 0 0 0 0 0
0 0 14 985 1717 1877 1790 1860 1751 1562 1482 1451 1412 1469 1794 1615 1501 1043 141 842 1385 1520 1509 1459 1370 1179 544 118 0 15 367 465 139 509 26 0 0 0 0 0 0 0 0
0 0 42 616 1883 2032 2026 1923 1905 1808 1811 1760 1606 1733 1952 1955 1707 1857 746 20 1444 1738 1837 1748 1627 1517 879 492 0 0 0 0 0 0 1 0 0 0 0 0 0 0 0
0 0 126 816 2132 1969 2216 2158 2177 2145 1991 1980 2123 2172 2176 2172 2177 2062 1535 78 0 436 2081 2144 2006 1439 668 52 0 0 0 0 82 1 1 0 0 0 0 0 0 0 0
0 3 264 570 741 2259 1933 2345 2280 2384 2515 2510 2453 2499 2456 2384 2359 2341 1435 248 4 1 0 397 722 70 0 1 0 1 0 0 8 0 0 0 0 0 0 0 0 0 0
0 1 3 52 752 1240 1910 2551 2463 2499 2445 2509 2560 2555 2579 2571 2548 2465 2417 2407 1284 1065 739 648 472 18 36 1 1 0 0 0 0 0 0 0 0 0 0 0 0 0 0
1 4 2 6 158 440 455 767 1315 2028 2217 2254 2196 2568 2577 2433 2115 2129 1802 852 439 12 42 773 770 816 986 703 325 127 0 0 0 0 0 0 0 0 0 0 0 0 0
0 0 2 4 5 16 122 318 247 522 345 2 0 0 0 13 0 0 0 0 1 0 20 848 558 844 824 719 459 112 18 0 0 0 0 0 0 0 0 0 0 0 0
0 0 2 6 6 5 5 4 76 783 893 296 0 1 2 2 0 0 0 1 33 0 25 148 709 750 712 771 327 71 3 0 0 0 0 0 0 0 0 0 0 0 0
0 0 0 0 5 4 5 5 5 4 5 2 1 0 0 1 1 1 1 77 325 336 251 222 346 557 738 701 417 155 70 0 0 0 0 0 0 0 0 0 0 0 0
0 0 0 0 1 1 6 5 4 5 6 5 5 1 4 1 1 0 1 0 33 56 157 348 334 320 383 330 294 54 1 0 0 0 0 0 0 0 0 0 0 0 0
0 0 0 0 0 0 2 4 4 5 5 6 7 2 1 1 3 2 1 1 1 1 1 1 1 4 1 1 0 0 0 1 1 0 0 0 0 0 0 0 0 0 0
0 0 0 0 0 0 0 0 0 1 3 3 4 2 0 2 2 2 3 4 3 3 3 3 4 3 1 0 0 0 0 0 0 0 0 0 0 0 0 0 0 0 0
0 0 0 0 0 0 0 0 0 0 0 0 1 2 2 2 3 3 3 3 4 5 5 7 8 4 0 1 0 0 0 0 0 0 0 0 0 0 0 0 0 0 0
0 0 0 0 0 0 0 0 0 0 0 0 0 0 0 0 0 1 2 3 5 4 4 5 7 2 3 1 1 1 1 0 0 0 0 0 0 0 0 0 0 0 0
0 0 0 0 0 0 0 0 0 0 0 0 0 0 0 0 0 0 0 0 0 1 0 1 3 0 0 0 0 0 0 2 0 0 0 0 0 0 0 0 0 0 0
0 0 0 0 0 0 0 0 0 0 0 0 0 0 0 0 0 0 0 0 0 0 0 0 0 0 0 0 0 0 0 0 0 0 0 0 0 0 0 0 0 0 0

GFSGL_con_sbcape_231.txt.gz
CAPE
523 445 307 797 1506 1160 1049 910 798 873 978 1270 1205 1737 1911 2182 1924 1738 1690 1672 1669 1163 552 559 553 302 278 174 83 0 0 0 0 0 0 0 0 0 0 0 0 0 0
678 524 427 619 1254 1455 1087 1528 1212 931 914 1504 1375 1783 1807 1959 2133 1924 1825 1982 1844 1816 1552 1147 1226 1083 866 438 322 393 114 3 0 2 0 0 0 0 0 0 0 0 0
814 580 520 534 762 1262 1281 1027 1484 1734 1038 1596 1606 1639 1850 1849 1854 2016 2031 1944 1899 1968 1946 1739 1558 1432 1342 1131 950 850 718 362 23 0 255 0 0 0 0 0 0 0 0
932 750 766 633 589 768 982 1069 955 1223 1768 1424 1560 1603 1528 1739 1869 1770 1995 2046 1974 1934 1831 1818 1808 1719 1651 1525 1241 1144 1146 865 443 301 457 219 18 0 0 0 0 0 0
914 900 886 874 744 617 515 659 828 807 1149 1483 1618 1694 1579 1444 1585 1889 1919 1942 2025 2025 1952 1922 1816 1723 1712 1625 1863 1347 1210 1156 1091 1093 878 808 406 48 0 0 0 0 0
546 1085 903 980 1000 1006 803 550 466 503 526 854 1337 1647 1734 1838 1809 1494 1595 1813 1954 2007 2084 1981 1761 1899 1623 1225 842 871 1350 1715 1641 1496 1765 1675 1406 769 0 0 0 0 0
648 677 1268 1059 1323 1301 1209 1049 904 700 482 398 673 1128 1459 1746 1914 1720 1056 1378 1823 1675 1729 1834 1800 1765 1597 1448 1511 1035 286 91 423 1471 1607 1313 1139 984 0 0 0 0 0
997 1177 1268 1390 1439 1551 1576 1495 1430 1260 1025 796 704 747 953 1144 1487 1370 885 713 1289 1474 1577 1498 1327 1433 1238 1054 1110 1059 868 528 152 8 90 517 477 616 1 0 0 0 0
0 51 633 1465 1478 1610 1735 1724 1664 1524 1410 1330 1172 893 908 1037 1079 702 99 543 865 1067 1251 919 956 1157 1221 847 477 584 681 685 563 344 133 107 56 38 0 0 0 0 0
0 0 0 0 542 1414 1519 1630 1666 1600 1504 1429 1416 1286 995 1048 1080 866 1 758 1113 1093 1080 981 701 424 659 29 38 240 384 643 624 141 8 0 0 0 0 0 0 0 0
0 0 0 0 42 839 1315 1411 1629 1573 1475 1356 1292 1305 1349 1114 1139 832 30 480 963 1139 1186 1236 1207 1119 426 0 0 0 227 499 302 8 27 0 0 0 0 0 0 0 0
0 0 0 0 206 1071 1554 1592 1435 1632 1593 1412 1231 1293 1258 1273 1237 1178 493 4 808 1081 1287 1392 1428 1385 1044 329 0 0 0 0 0 0 0 0 0 0 0 0 0 0 0
0 0 0 54 239 509 1535 1715 1700 1601 1716 1599 1428 1406 1349 1512 1543 1262 1142 0 0 191 1360 1624 1717 1465 74 0 0 0 0 0 0 0 18 1 0 0 0 0 0 0 0
0 0 0 1 2 670 1043 1705 1922 1921 1860 1869 1825 1813 1862 1919 1932 1914 786 108 1 1 0 342 511 462 348 386 105 0 0 0 0 0 0 0 0 0 0 0 0 0 0
0 0 0 1 3 139 303 493 1376 2118 2119 2170 2163 2073 2100 2176 2171 2132 2121 1958 1200 507 319 410 654 225 307 235 68 1 1 1 1 1 0 0 0 0 0 0 0 0 0
0 0 0 4 5 6 3 31 284 393 423 475 285 1006 2475 1742 765 1353 1129 243 1 26 199 811 779 826 867 838 730 508 59 1 0 1 1 0 0 0 0 0 0 0 0
0 0 0 0 3 3 5 3 2 13 1 2 0 1 1 35 28 658 784 238 35 1 168 712 848 766 638 171 107 397 526 3 0 1 0 0 0 0 0 0 0 0 0
0 0 0 0 0 3 5 5 6 5 10 16 0 1 2 2 2 1 2 1 33 1 82 295 436 501 271 503 615 555 212 1 1 1 1 0 0 0 0 0 0 0 0
0 0 0 0 0 0 4 3 5 4 5 5 2 0 0 0 1 1 1 8 543 441 277 290 233 332 518 585 544 303 95 3 1 1 0 0 1 0 0 0 0 0 0
0 0 0 0 0 0 0 3 2 4 4 5 4 2 1 1 1 1 1 1 1 57 116 279 264 254 256 331 351 91 1 1 1 0 0 0 2 1 0 0 0 0 0
0 0 0 0 0 0 0 0 0 3 3 3 3 3 1 1 2 2 2 4 3 2 2 2 3 3 2 1 1 1 1 0 0 2 1 1 5 0 0 0 0 0 0
0 0 0 0 0 0 0 0 0 0 1 1 2 2 0 2 4 5 3 3 6 4 4 3 2 3 3 4 2 0 0 0 0 2 5 6 5 2 0 0 0 0 0
0 0 0 0 0 0 0 0 0 0 0 0 0 0 0 3 5 9 8 8 9 3 3 4 2 1 2 2 2 1 2 1 0 0 1 3 5 2 0 0 0 0 0
0 0 0 0 0 0 0 0 0 0 0 0 0 0 0 0 0 0 3 6 5 3 3 0 0 1 2 0 0 0 0 0 1 0 0 1 0 1 0 0 0 0 0
0 0 0 0 0 0 0 0 0 0 0 0 0 0 0 0 0 0 0 0 0 0 0 0 0 0 0 0 0 0 0 1 0 0 0 0 2 4 1 0 0 0 0
0 0 0 0 0 0 0 0 0 0 0 0 0 0 0 0 0 0 0 0 0 0 0 0 0 0 0 0 0 0 0 0 0 0 0 2 1 0 0 0 0 0 0

GFSGL_con_sbcape_234.txt.gz
CAPE
47 39 153 486 1028 1162 901 728 577 592 721 784 907 1602 1933 2077 1957 1718 1629 1562 1417 1488 1221 826 783 515 585 427 231 22 0 0 0 10 0 0 0 0 0 0 0 0 0
147 175 84 356 915 1265 1081 1056 749 737 835 1118 1360 1419 1673 1955 2225 2043 1973 2083 1951 1935 1871 1442 1492 1344 1339 1116 886 784 486 83 0 225 487 55 2 1 0 0 0 0 0
367 331 225 254 724 1109 1349 1102 1433 1080 856 1066 1488 1593 1756 1843 2011 2194 2215 2152 2080 2111 2124 1978 1989 1774 1842 1939 1710 1538 1627 1139 169 19 869 250 111 20 0 0 0 0 0
572 498 398 316 479 768 1214 1325 1045 1529 1668 1136 1505 1772 1768 1863 1910 1992 2180 2283 2258 2172 2110 2118 2186 2066 2147 2208 1953 1940 1904 1701 1334 764 1040 1150 580 756 0 1 18 0 0
791 715 549 471 421 487 721 1126 1299 975 1337 1741 1615 1583 1711 1673 1725 1976 2036 2134 2189 2207 2171 2141 2111 2002 1820 1979 2337 2435 1789 1889 1741 1534 1433 1497 1396 1455 858 390 0 0 0
815 886 812 728 636 496 440 482 739 944 973 1038 1305 1604 1722 1733 1626 1377 1606 2047 2135 2179 2233 2287 2115 1734 1663 1127 811 951 1357 2292 2152 1810 1943 1988 2213 2116 1717 579 7 0 0
642 675 839 817 848 868 808 616 452 509 600 455 699 1102 1310 1582 1576 1392 628 1334 1774 1826 1951 2029 2079 1908 1534 1913 1564 730 271 66 337 1746 1940 1999 1942 1710 1513 837 1 0 0
589 678 687 821 1065 1089 1196 1087 939 805 702 581 495 484 702 889 866 1036 552 924 1551 1785 1955 2036 2003 1992 1948 1632 1555 1522 1452 1299 732 141 647 1155 1213 1110 815 733 136 0 0
7 48 119 611 1018 1328 1297 1417 1380 1285 1252 1071 992 790 653 726 565 196 3 685 1117 1460 1612 1666 1717 1788 1582 1131 959 1405 1436 1227 798 268 80 124 43 0 20 0 0 0 0
0 0 0 0 5 542 1515 1647 1722 1679 1573 1497 1468 1386 1075 1083 857 407 0 588 910 1077 1237 1274 745 895 1111 326 277 922 952 1076 1095 974 397 25 1 0 0 1 0 0 0
0 1 0 0 1 76 434 1076 1576 1722 1845 1860 1815 1713 1559 1289 1222 772 23 569 999 1262 1399 1480 1482 977 239 0 0 531 676 940 854 413 396 139 0 0 0 1 0 0 0
0 0 0 0 123 548 767 1202 1337 1460 1688 1656 1680 1590 1536 1488 1118 1019 257 10 769 1175 1386 1470 1461 1125 637 213 0 0 0 0 0 0 75 202 13 1 0 0 0 0 0
0 1 0 0 3 32 504 1021 1758 1631 1578 1695 1581 1303 1574 1594 1417 940 439 0 0 231 1222 1272 1229 1050 314 14 0 0 0 1 2 2 199 274 0 0 0 0 0 0 0
0 0 1 0 0 32 100 255 830 1715 1718 1730 1759 1730 1724 1565 1067 1357 942 379 19 0 0 143 320 456 581 725 215 142 1 11 125 283 535 173 1 0 0 0 0 0 0
0 0 0 1 1 2 3 7 40 320 248 846 1964 2086 2062 1923 1802 1705 1726 1935 1478 981 610 647 741 858 840 910 701 473 17 3 1 20 1 1 0 0 1 1 0 0 0
0 0 0 2 3 4 3 2 0 0 1 2 1 1 569 774 2 56 199 484 925 411 182 1190 1287 1377 1272 1081 991 645 162 11 1 11 3 2 1 3 2 1 0 0 0
0 0 1 0 1 1 0 3 3 1 0 2 1 2 1 1 1 2 2 2 2 1 926 1689 1710 1918 1739 1598 1380 710 199 402 378 2 2 3 4 4 4 4 2 0 0
0 0 0 1 2 1 2 0 2 4 4 3 1 0 0 0 1 2 2 1 0 1 99 1265 1754 1671 1565 1380 656 466 672 786 23 1 1 1 4 3 3 2 2 0 0
0 0 0 0 1 0 2 3 3 4 4 5 4 0 0 0 1 1 1 3 37 178 151 261 532 487 816 865 876 872 870 670 16 3 1 0 0 2 2 5 6 0 0
0 0 0 0 0 0 0 1 2 2 4 4 3 3 2 1 2 2 4 4 3 5 3 4 4 19 28 66 171 614 546 56 2 3 1 2 2 2 3 4 4 0 0
0 0 0 0 0 0 0 0 1 0 1 3 4 3 0 3 3 4 4 5 5 8 6 3 3 2 2 2 3 1 1 0 0 1 2 1 2 1 1 2 0 0 0
0 0 0 0 0 0 0 0 0 0 0 0 1 1 0 3 3 3 4 5 6 9 10 4 3 2 2 2 2 1 1 1 1 1 1 1 2 2 1 3 1 0 0
0 0 0 0 0 0 0 0 0 0 0 0 0 0 0 0 2 2 3 5 5 10 5 11 9 2 3 2 2 2 2 2 2 1 0 1 1 1 0 0 0 0 0
0 0 0 0 0 0 0 0 0 0 0 0 0 0 0 0 0 0 0 1 3 1 1 0 1 3 2 2 2 3 2 1 2 4 0 0 1 0 1 0 0 0 0
0 0 0 0 0 0 0 0 0 0 0 0 0 0 0 0 0 0 0 0 0 0 0 0 0 0 0 0 0 0 0 0 0 1 1 0 0 0 1 1 0 0 0
0 0 0 0 0 0 0 0 0 0 0 0 0 0 0 0 0 0 0 0 0 0 0 0 0 0 0 0 0 0 0 0 0 0 0 1 0 0 0 1 2 0 0

GFSGL_con_sbcape_240.txt.gz
CAPE
1598 1772 1920 1756 2222 2472 2398 2573 2872 2922 3067 2547 2895 3028 2991 3007 3598 3960 3733 3019 3409 3084 2502 2762 3344 3593 3114 2737 2652 2498 2355 2396 2330 2014 2035 2420 3438 3297 3177 3299 3086 2777 2352
2397 2846 1797 1442 1808 2130 2396 2268 2779 3074 3171 3128 2902 3069 3111 3201 3324 3838 3840 3301 3553 3483 3148 3185 3202 2823 3508 3603 3108 3295 2992 3148 2959 4161 3651 2796 3735 3189 3074 3047 2760 2481 2400
2348 1791 1692 1707 1611 1605 1752 2073 2676 2947 3193 2972 3137 3085 3084 3112 3056 3361 3681 3664 3720 3597 3497 3113 3117 3279 3546 3311 3305 2991 2703 2567 2908 2426 2577 2302 2456 2452 2745 3152 3132 3119 2416
1546 1599 1930 1517 1570 1611 1908 2411 3272 3342 2982 2934 2948 3156 3245 3291 3219 3182 3281 3501 3681 3659 3658 3649 3558 3515 3728 3883 3834 3729 3661 3439 3204 2718 2178 1866 2173 2625 2466 2723 2316 2002 2095
1652 1570 2027 2107 2226 2040 2460 2232 2346 3243 3333 2727 2895 3001 3056 2980 2795 3016 3099 3195 3383 3517 3544 3598 3555 3315 3010 3079 3065 4023 4794 3280 2088 1509 1354 1421 1276 1301 1830 1904 2106 2007 2653
2222 1591 2171 2815 2931 2907 2757 2747 3258 2843 3490 3095 2945 2575 2625 2441 1771 1651 1869 2398 2521 2850 3174 3314 3238 2731 2650 2265 2138 1862 1855 3143 4468 2526 1591 1431 3217 2841 1833 2159 2345 2434 2290
1842 1900 1827 2614 2296 2680 2346 2724 3034 3229 3391 3559 3011 2688 3044 3060 1934 1184 1383 2583 2437 2303 2913 2672 2476 1987 1877 2108 1565 1044 966 601 479 2626 3072 3406 3596 3969 4055 3725 3766 2911 2641
2079 2088 2064 2120 2141 2553 2599 2680 2878 2484 2985 3188 2858 3327 3272 2925 1834 1477 958 2392 2530 2943 2601 2624 3239 3417 3294 2781 2897 2067 2094 2094 2121 1772 2387 2892 2935 2942 3757 3431 3028 2072 1201
1641 1896 1818 2187 2169 2050 2146 2231 2200 2210 2314 2369 2499 2763 3115 3272 1867 917 596 1892 1756 1960 2169 3078 2721 3081 2522 2074 2514 2899 2781 2408 1939 1596 1306 1338 1186 853 452 1149 1341 1468 1371
574 455 312 900 1440 1986 1952 2095 2390 2658 2533 2424 2463 2526 2403 2740 2214 1456 250 1520 1709 1842 2729 3086 1919 2021 2282 1817 2352 2626 2773 2772 2868 3003 3279 1573 529 1317 66 492 1655 1905 1002
20 21 257 325 545 1284 1705 1901 2378 2614 2947 3023 3320 3316 3751 3311 3317 1953 194 1971 2135 2287 2317 2351 2371 1415 1030 1034 360 2189 2416 2527 2549 2816 2906 3265 3311 3052 3014 952 1290 1255 1443
31 8 48 94 217 599 834 948 1637 2011 2490 2655 2962 3115 3035 3927 3076 2782 535 67 1916 2426 2604 2620 2583 710 354 433 27 549 523 261 1459 2073 2327 2586 2690 2677 3300 2712 1329 978 246
163 148 166 112 116 279 466 745 1268 1491 1396 2451 2311 2797 2858 2748 3441 2204 1245 0 0 561 2262 1963 870 571 90 191 125 616 17 1051 1720 2182 2638 2243 2158 1776 1681 418 99 6 2
119 114 97 149 136 105 326 476 759 609 342 575 841 1002 1866 2538 2495 0 20 987 396 85 137 399 802 843 784 647 742 1364 1386 2235 2616 3010 2815 2213 2030 962 1215 264 6 7 9
13 22 10 1 40 9 32 80 139 1 1 23 8 17 31 578 448 0 0 51 538 174 0 2231 2668 2326 2340 2753 3193 3319 3273 3002 2622 2297 1999 1720 1626 995 597 8 7 7 4
3 0 0 3 0 2 17 30 0 0 1 0 1 0 0 0 0 0 0 1 1 0 271 1373 2034 2148 1597 2434 3388 3751 3827 2533 2414 2167 2306 1432 1315 975 522 9 6 5 3
0 0 0 0 0 0 0 0 0 0 0 2 0 0 0 0 1 2 2 2 2 0 52 878 1282 1641 2276 3029 3279 3183 3322 3761 3768 3086 2361 1842 1287 1062 146 7 7 7 9
0 0 0 0 0 0 0 0 0 0 0 0 0 0 0 0 0 0 0 13 429 75 329 514 602 681 824 928 921 1552 2390 3074 3388 2930 2525 2016 1701 780 153 7 7 7 8
0 0 0 0 0 0 0 0 0 0 0 0 0 0 0 0 0 0 0 7 7 7 7 7 7 6 6 7 9 302 828 1122 2026 2608 2335 1842 1087 543 217 7 7 2 2
0 0 0 0 0 0 0 0 0 0 0 0 0 0 0 0 3 5 8 8 8 7 8 9 7 6 8 7 4 4 7 58 517 1168 1173 614 367 316 268 33 6 6 6
0 0 0 0 0 0 0 0 0 0 0 0 0 0 0 0 3 7 6 5 5 4 8 10 11 5 5 6 6 4 4 9 12 9 193 152 149 228 285 125 8 8 3
0 0 0 0 0 0 0 0 0 0 0 0 0 0 0 0 0 1 5 7 5 3 4 7 7 7 4 4 4 4 4 5 5 4 10 8 8 9 9 8 6 4 2
0 0 0 0 0 0 0 0 0 0 0 0 0 0 0 0 0 0 0 0 0 0 0 0 1 0 1 4 5 4 3 3 4 5 7 12 12 10 8 7 5 3 2
0 0 0 0 0 0 0 0 0 0 0 0 0 0 0 0 0 0 0 0 0 0 0 0 0 0 0 0 0 0 4 1 2 6 4 10 13 3 7 5 4 3 1
0 0 0 0 0 0 0 0 0 0 0 0 0 0 0 0 0 0 0 0 0 0 0 0 0 0 0 0 0 0 0 0 0 0 0 3 4 16 14 10 5 2 1
0 0 0 0 0 0 0 0 0 0 0 0 0 0 0 0 0 0 0 0 0 0 0 0 0 0 0 0 0 0 0 0 0 0 0 3 4 10 10 5 4 5 2

GFSGL_con_sbcape_243.txt.gz
CAPE
2199 2321 2795 2327 3011 3345 2647 3186 3428 3319 3878 2995 3122 2740 2541 2494 2697 3821 4175 3288 3628 3158 2906 2181 2866 4182 3033 2361 2613 2525 2408 2206 2212 2326 2354 2826 4476 3955 4017 3902 3090 3549 2762
2792 2889 2304 1977 2647 2402 3492 3334 2988 3475 4010 3288 3313 3677 3225 3147 3903 4141 3194 3002 3203 2855 2981 3548 3025 2849 4874 4838 3044 4063 3002 3370 2713 3669 3599 3307 4086 4217 4530 4745 3472 2569 2810
2847 2603 1921 1553 1612 1986 2535 3019 3377 3806 3726 2981 3453 4134 4262 3816 3804 3774 4484 3664 3537 3242 3623 3931 3822 4161 4752 3559 4435 3518 2555 2823 2976 2878 2979 2950 2901 2899 3181 3717 4058 3902 3211
2111 2076 2386 2250 1681 1328 2714 3535 3610 4080 3943 3512 3764 4317 4375 4251 3898 3902 4172 4450 4448 3803 4371 4372 4010 4331 4691 4884 4555 5027 4390 4027 3610 3338 2901 2507 2066 2197 2223 2015 1776 2003 2264
2831 2108 2447 2987 2921 2485 2367 3009 3534 3789 3755 4217 4073 3630 3919 3782 2843 4033 4118 4213 4534 4413 4347 4233 4271 3866 2964 3508 3360 4174 4808 3556 2724 2449 2104 1868 1701 1717 2166 1813 2077 2354 2826
3341 2993 3331 3530 3407 3322 3183 3315 3905 4019 4140 4370 4278 4082 4076 2725 1710 1653 2265 3106 4009 4274 4538 4493 4114 3181 2639 2429 2419 2397 2530 4182 4377 3062 2538 2455 2829 2721 2385 2292 2811 2841 2977
2417 3046 3454 3605 3382 3571 3589 3534 3832 4172 4303 4456 4463 4238 4081 4065 1900 587 997 3083 3085 3177 3517 3780 3250 1800 1894 3216 1983 1200 1015 747 855 3191 3725 3758 3852 4027 4284 4157 3439 3494 3142
2284 2337 2825 2841 3124 3483 3706 3757 3835 3424 3677 3640 3709 4317 4244 3576 2203 1163 575 2513 3178 3611 3497 3331 3298 3329 3247 3055 3378 3316 3292 3228 2665 1784 2425 3298 3835 4107 4206 3840 3393 3248 2422
2758 2834 2808 2677 2547 2552 2504 3112 3418 3538 3140 3154 3084 3377 3993 4309 2608 1461 481 2350 2159 2814 3009 3224 3262 3221 2680 2407 3258 3677 3809 3620 2096 1710 1463 1344 1018 514 241 1462 2016 2079 1900
1052 2330 2349 1053 2309 2115 1918 1844 2216 2784 2572 2238 3030 3493 3251 3990 3174 1859 500 2137 2295 1778 2665 3004 2171 2222 2412 2088 2785 3569 3765 3868 3835 3729 4035 3283 1282 2259 1006 686 2294 2403 1824
768 724 766 999 904 662 877 1062 1100 1701 2023 3003 3205 3517 3431 3702 4015 2261 799 2435 2461 2163 2120 2284 2369 993 687 547 504 3364 3618 3719 3400 3024 3090 3048 3185 3570 3617 3101 2131 2428 1897
253 358 208 273 431 656 832 712 570 695 2001 1984 3188 3144 3155 3690 3060 2913 917 83 2304 2671 2860 2585 2572 134 374 28 0 216 755 537 1669 1979 2237 2657 2888 3281 3514 3386 2971 844 29
370 493 481 322 312 469 534 630 511 1180 1011 1472 1942 2303 3034 3882 2818 7 28 0 0 78 2500 2272 603 443 67 14 18 540 160 1247 1838 2107 2473 3053 3168 3280 2624 875 12 2 2
302 354 607 310 396 403 402 797 818 286 364 479 597 638 552 1464 140 0 0 0 80 201 198 1142 1461 1178 971 514 709 1424 1355 2013 2391 2991 3020 3179 3276 2479 1869 1676 542 6 4
203 163 191 187 198 274 317 253 184 13 28 112 9 284 140 130 5 0 0 0 0 0 1 189 1843 3293 3842 3043 2875 3316 3412 3884 2930 2530 3055 3209 2402 2407 2003 811 335 6 4
16 11 0 88 65 67 106 189 0 0 0 0 0 0 0 0 0 0 0 2 0 0 0 985 1915 2815 2888 2849 2324 1923 2495 2526 3142 2642 2895 3016 2706 2143 1926 727 114 6 4
0 0 0 0 0 3 40 3 40 0 1 1 0 0 0 0 0 0 0 0 2 1 4 1450 1317 1131 1276 1561 1512 1622 2087 2782 3192 3292 3413 2599 2627 2117 1627 918 11 6 6
0 0 0 0 0 0 0 0 0 0 0 0 0 0 0 0 0 0 0 0 0 0 1 3 7 7 6 6 7 8 152 818 1707 2313 2966 3211 1847 1833 1270 635 7 9 7
0 0 0 0 0 0 0 0 0 0 0 0 0 0 0 0 0 0 0 2 4 3 2 3 8 7 7 9 9 8 8 8 6 156 1178 2350 2288 1700 1332 624 281 1 2
0 0 0 0 0 0 0 0 0 0 0 0 0 0 0 0 0 0 0 0 0 2 1 1 3 5 5 6 8 9 7 7 11 10 33 673 939 751 511 575 507 32 6
0 0 0 0 0 0 0 0 0 0 0 0 0 0 0 0 0 0 0 0 0 0 0 2 4 6 6 4 5 5 4 4 5 5 5 6 95 325 399 439 478 86 2
0 0 0 0 0 0 0 0 0 0 0 0 0 0 0 0 0 0 0 0 1 1 0 1 3 5 5 6 3 3 3 2 2 3 4 3 8 3 3 111 179 41 7
0 7 8 3 2 0 0 0 0 0 0 0 0 0 0 0 0 0 0 0 0 0 0 0 0 0 0 0 0 0 1 1 2 2 2 3 5 13 5 7 7 7 5
0 0 3 13 12 13 10 1 0 0 0 0 0 0 0 0 0 0 0 0 0 0 0 0 0 0 0 0 0 0 0 0 0 1 1 1 3 7 5 10 11 8 5
0 0 0 15 52 44 22 3 0 0 0 1 1 0 0 0 0 0 0 0 0 0 0 0 0 0 0 0 0 0 0 0 0 0 0 0 2 3 4 6 7 2 4
0 0 0 0 1 0 22 16 6 3 2 1 0 0 0 0 0 0 0 0 0 0 0 0 0 0 0 0 0 0 0 0 0 0 0 1 2 1 1 5 5 2 1